Flag for Poland Weather past 2 weeks in Warsaw, Poland

Now
68 °F

Clear.


Feels Like: 68 °F
Forecast: 64 / 79 °F
Wind: No wind

Location: Warsaw Okecie Airport

Current Time: Jul 31, 2014 at 3:54:08 AM

Latest Report: Jul 31, 2014 at 3:00 AM


Visibility: 10 mi

Pressure: 29.77 "Hg

Humidity: 94%

Dew point: 66 °F

Location of WarsawLocation

Historic Weather in Warsaw — Graph

°F

Warsaw temperature yesterday

Maximum temperature yesterday: 82 °F (at 3:00 PM)
Minimum temperature yesterday: 64 °F (at 5:30 AM)
Average temperature yesterday: 74 °F

Past Weeks' High & Low Weather Summary

 TemperatureHumidityPressure
High86 °F (Jul 28, 3:00 PM)100% (Jul 21, 1:30 AM)30.15 "Hg (Jul 21, 1:30 AM)
Low61 °F (Jul 21, 4:00 AM)32% (Jul 19, 5:00 PM)29.77 "Hg (Jul 29, 6:00 PM)
Average72 °F68%29.98 "Hg
* Reported Jul 16 3:00 AM — Jul 31 3:00 AM, Warsaw, Weather by CustomWeather, © 2014

Note: Actual official high and low records may vary slightly from our data, if they occured in-between our weather recording intervals... More about our weather records

Advertising

Warsaw weather history for previous 24 hours

 ConditionsComfort  
Time TempWeatherWind HumidityBarometerVisibility
3:00 AM
Jul 31
68 °FClear.No wind94%29.77 "Hg10 mi
2:30 AM66 °FClear.No wind94%29.77 "Hg10 mi
2:00 AM68 °FClear.No wind94%29.77 "Hg10 mi
1:30 AM70 °FClear.3 mph88%29.77 "Hg10 mi
1:00 AM70 °FClear.5 mph88%29.77 "Hg10 mi
12:30 AM72 °FClear.3 mph83%29.77 "Hg10 mi
12:00 AM70 °FClear.No wind88%29.77 "Hg10 mi
11:30 PM
Jul 30
72 °FClear.3 mph83%29.77 "Hg10 mi
10:30 PM73 °FClear.7 mph78%29.77 "Hg10 mi
10:00 PM73 °FClear.6 mph78%29.77 "Hg10 mi
9:30 PM75 °FClear.7 mph74%29.77 "Hg10 mi
9:00 PM75 °FSunny.6 mph74%29.77 "Hg10 mi
8:30 PM77 °FSunny.6 mph69%29.77 "Hg10 mi
8:00 PM77 °FSunny.7 mph65%29.77 "Hg10 mi
7:30 PM79 °FSunny.7 mph65%29.77 "Hg10 mi
7:00 PM79 °FSunny.7 mph65%29.77 "Hg10 mi
6:30 PM81 °FSunny.10 mph62%29.77 "Hg10 mi
6:00 PM81 °FPassing clouds.9 mph62%29.77 "HgN/A
5:30 PM81 °FPassing clouds.8 mph62%29.77 "HgN/A
5:00 PM81 °FPassing clouds.10 mph58%29.77 "HgN/A
4:30 PM81 °FPassing clouds.12 mph58%29.77 "HgN/A
4:00 PM82 °FPassing clouds.12 mph58%29.77 "HgN/A
3:30 PM81 °FPassing clouds.10 mph58%29.77 "HgN/A
3:00 PM82 °FScattered clouds.10 mph55%29.80 "HgN/A
2:30 PM81 °FPassing clouds.10 mph54%29.80 "HgN/A
2:00 PM81 °FScattered clouds.10 mph58%29.80 "HgN/A
1:30 PM81 °FPartly sunny.9 mph54%29.80 "HgN/A
1:00 PM81 °FPartly sunny.12 mph54%29.80 "HgN/A
12:30 PM81 °FScattered clouds.14 mph54%29.80 "HgN/A
12:00 PM79 °FScattered clouds.13 mph61%29.80 "HgN/A
11:30 AM77 °FScattered clouds.13 mph61%29.80 "HgN/A
11:00 AM77 °FScattered clouds.14 mph61%29.80 "HgN/A
10:30 AM77 °FPassing clouds.14 mph65%29.80 "HgN/A
10:00 AM75 °FPassing clouds.12 mph69%29.80 "HgN/A
9:30 AM73 °FSunny.14 mph69%29.80 "Hg10 mi
9:00 AM73 °FPassing clouds.10 mph74%29.80 "HgN/A
8:30 AM70 °FSunny.8 mph83%29.80 "Hg10 mi
8:00 AM70 °FSunny.10 mph78%29.80 "Hg10 mi
7:30 AM68 °FSunny.9 mph83%29.80 "Hg10 mi
7:00 AM68 °FSunny.9 mph83%29.80 "Hg10 mi
6:30 AM66 °FSunny.8 mph83%29.80 "Hg10 mi
6:00 AM64 °FSunny.8 mph88%29.80 "Hg10 mi
5:30 AM64 °FClear.7 mph88%29.80 "Hg10 mi
5:00 AM66 °FClear.7 mph83%29.80 "Hg10 mi
4:30 AM66 °FClear.7 mph83%29.80 "Hg10 mi
4:00 AM66 °FClear.6 mph83%29.80 "Hg10 mi
3:30 AM66 °FClear.6 mph83%29.80 "Hg10 mi
3:00 AM66 °FClear.7 mph83%29.80 "Hg10 mi
Weather by CustomWeather, © 2014

See weather overviewHow to use our weather pages